TimeEDT,TemperatureF,Dew PointF,Humidity,Sea Level PressureIn,VisibilityMPH,Wind Direction,Wind SpeedMPH,Gust SpeedMPH,PrecipitationIn,Events,Conditions,WindDirDegrees,DateUTC
12:53 AM,34.0,25.0,70,30.17,10.0,Calm,Calm,-,N/A,,Clear,0,2014-03-31 04:53:00
1:53 AM,33.1,24.1,70,30.17,10.0,Calm,Calm,-,N/A,,Clear,0,2014-03-31 05:53:00
2:53 AM,34.0,24.1,67,30.17,10.0,Calm,Calm,-,N/A,,Clear,0,2014-03-31 06:53:00
3:53 AM,32.0,23.0,69,30.17,10.0,WSW,3.5,-,N/A,,Clear,240,2014-03-31 07:53:00
4:53 AM,28.9,21.9,75,30.17,10.0,Calm,Calm,-,N/A,,Clear,0,2014-03-31 08:53:00
5:53 AM,30.9,23.0,72,30.18,10.0,Calm,Calm,-,N/A,,Clear,0,2014-03-31 09:53:00
6:53 AM,30.0,23.0,75,30.19,10.0,Calm,Calm,-,N/A,,Clear,0,2014-03-31 10:53:00
7:53 AM,30.9,24.1,76,30.22,10.0,East,4.6,-,N/A,,Clear,80,2014-03-31 11:53:00
8:53 AM,36.0,27.0,70,30.23,10.0,Calm,Calm,-,N/A,,Clear,0,2014-03-31 12:53:00
9:53 AM,44.1,30.0,58,30.22,10.0,SE,4.6,-,N/A,,Clear,130,2014-03-31 13:53:00
10:53 AM,50.0,30.0,46,30.22,10.0,South,6.9,-,N/A,,Clear,180,2014-03-31 14:53:00
11:53 AM,54.0,30.9,41,30.21,10.0,South,6.9,-,N/A,,Clear,190,2014-03-31 15:53:00
12:53 PM,57.0,30.0,36,30.19,10.0,South,9.2,-,N/A,,Clear,170,2014-03-31 16:53:00
1:53 PM,61.0,30.0,31,30.18,10.0,ESE,6.9,-,N/A,,Clear,120,2014-03-31 17:53:00
2:53 PM,63.0,28.0,27,30.15,10.0,SSE,13.8,-,N/A,,Clear,150,2014-03-31 18:53:00
3:53 PM,63.0,27.0,26,30.13,10.0,SSE,10.4,-,N/A,,Clear,150,2014-03-31 19:53:00
4:53 PM,64.0,28.0,26,30.12,10.0,South,12.7,-,N/A,,Clear,180,2014-03-31 20:53:00
5:53 PM,59.0,34.0,39,30.09,10.0,East,9.2,-,N/A,,Clear,80,2014-03-31 21:53:00
6:53 PM,54.0,34.0,47,30.08,10.0,East,6.9,-,N/A,,Clear,90,2014-03-31 22:53:00
7:53 PM,48.0,33.1,56,30.07,10.0,East,6.9,-,N/A,,Clear,80,2014-03-31 23:53:00
8:53 PM,45.0,30.9,58,30.06,10.0,East,8.1,-,N/A,,Clear,100,2014-04-01 00:53:00
9:53 PM,44.1,30.0,58,30.04,10.0,ESE,8.1,-,N/A,,Clear,110,2014-04-01 01:53:00
10:53 PM,43.0,32.0,65,30.02,10.0,East,8.1,-,N/A,,Clear,100,2014-04-01 02:53:00
11:53 PM,43.0,32.0,65,30.00,10.0,Calm,Calm,-,N/A,,Clear,0,2014-04-01 03:53:00